This is the latest recevied weather packets stored in our database for station/object W1RCP. If no packets are shown the sender has not sent any weather packets the latest 10 day(s).
| Time | Temp. | Humidity | Pressure | Rain* | Wind** | Luminosity | Snow |
|---|---|---|---|---|---|---|---|
| 1778160392 | 22.22° C | 89% | 1027 hPa | 0 mm | - | 8 W/m² | - |
| 1778160088 | 22.22° C | 89% | 1026.4 hPa | 0 mm | - | 15 W/m² | - |
| 1778159785 | 22.22° C | 89% | 1026.3 hPa | 0 mm | - | 17 W/m² | - |
| 1778159482 | 22.22° C | 89% | 1026 hPa | 0 mm | - | 12 W/m² | - |
| 1778159179 | 22.22° C | 89% | 1025.8 hPa | 0 mm | - | 14 W/m² | - |
| 1778158877 | 22.22° C | 89% | 1025.4 hPa | 0 mm | - | 27 W/m² | - |
| 1778158576 | 22.22° C | 89% | 1025 hPa | 0 mm | - | 26 W/m² | - |
| 1778158273 | 22.22° C | 89% | 1025.1 hPa | 0 mm | - | 26 W/m² | - |
| 1778157969 | 22.22° C | 89% | 1025.3 hPa | 0 mm | - | 30 W/m² | - |
| 1778157667 | 22.22° C | 88% | 1025.4 hPa | 0 mm | - | 32 W/m² | - |
| 1778157365 | 22.22° C | 88% | 1025.3 hPa | 0 mm | - | 36 W/m² | - |
| 1778157061 | 22.22° C | 89% | 1025.4 hPa | 0 mm | - | 42 W/m² | - |
| 1778156757 | 22.22° C | 89% | 1025.3 hPa | 0 mm | - | 36 W/m² | - |
| 1778156453 | 22.22° C | 89% | 1025.4 hPa | 0 mm | - | 48 W/m² | - |
| 1778156148 | 22.22° C | 89% | 1025.2 hPa | 0 mm | - | 46 W/m² | - |
| 1778155845 | 21.67° C | 89% | 1025.5 hPa | 0 mm | - | 27 W/m² | - |
| 1778155541 | 21.67° C | 89% | 1025.4 hPa | 0 mm | - | 34 W/m² | - |
| 1778155238 | 21.67° C | 89% | 1025.5 hPa | 0 mm | - | 29 W/m² | - |
| 1778154934 | 21.67° C | 89% | 1025.4 hPa | 0 mm | - | 19 W/m² | - |
| 1778154630 | 21.67° C | 89% | 1025.3 hPa | 0 mm | - | 21 W/m² | - |
| 1778154326 | 21.67° C | 89% | 1025.3 hPa | 0 mm | - | 29 W/m² | - |
| 1778154024 | 21.67° C | 89% | 1025.3 hPa | 0 mm | - | 20 W/m² | - |
| 1778153721 | 21.67° C | 89% | 1025.3 hPa | 0 mm | - | 19 W/m² | - |
| 1778153418 | 21.67° C | 89% | 1025.4 hPa | 0 mm | - | 18 W/m² | - |
| 1778153115 | 21.67° C | 89% | 1025.3 hPa | 0 mm | - | 12 W/m² | - |
* Rain latest hour (hover to see other rain measurements)
** Current wind speed in m/s (hover to see current wind gust speed)